Weather History for PAKF - October, 2012

Change the Weather History Date:

Saturday, October 13, 2012

  Actual Average (PACD) Record (PACD)
Temperature  
Mean Temperature 38 °F 41 °F  
Max Temperature 36 °F 46 °F 69 °F (1954)
Min Temperature 35 °F 36 °F 27 °F (1967)
Degree Days  
Heating Degree Days 27 24  
Month to date heating degree days 291  
Since 1 July heating degree days 1642  
Cooling Degree Days 0    
Month to date cooling degree days  
Year to date cooling degree days  
Moisture  
Dew Point 29 °F    
Average Humidity 71    
Maximum Humidity 77    
Minimum Humidity 65    
Precipitation  
Precipitation 0.07 in 0.16 in 1.08 in (2008)
Month to date precipitation 2.03  
Year to date precipitation 29.50  
Snow  
Snow 0.00 in 0.10 in 1.70 in (1973)
Month to date snowfall 0.4  
Since 1 July snowfall 0.4  
Since 1 September snowfall 0.4  
Snow Depth -    
Sea Level Pressure  
Sea Level Pressure 29.50 in    
Wind  
Wind Speed - (North)    
Max Wind Speed -    
Max Gust Speed -    
Visibility 9 miles    
Events Rain , Snow    
T = Trace of Precipitation, MM = Missing Value Source: NWS Daily Summary

Daily Weather History Graph

Daily Weather History Graph

Search for Another Location

Airport or City:

Trip Planner

Search our weather history database for the weather conditions in past years. The results will help you decide how hot, cold, wet, or windy it might be!

Date:

Astronomy

Oct. 13, 2012 Rise Set
Actual Time 8:20 AM HDT 6:57 PM HDT
Civil Twilight 7:44 AM HDT 7:34 PM HDT
Nautical Twilight 7:02 AM HDT 8:15 PM HDT
Astronomical Twilight 6:20 AM HDT 8:57 PM HDT
Moon 6:12 AM HDT (10/13) 5:55 PM HDT (10/13)
Length of Visible Light 11h 50m
Length of Day
10h 37m
Waning Crescent, 4% of the Moon is Illuminated
Oct 13
Waning Crescent
Oct 15
New
Oct 21
First Quarter
Oct 29
Full
Nov 6
Last Quarter

Hourly Weather History & Observations

Time (HDT) Temp. Dew Point Humidity Pressure Visibility Wind Dir Wind Speed Gust Speed Precip Events Conditions
12:01 AM 41.0 °F 34.0 °F 76% 29.50 in 10.0 mi North - - N/A   Mostly Cloudy
1:01 AM 41.0 °F 34.0 °F 76% 29.51 in 10.0 mi North - - N/A   Overcast
2:01 AM 39.9 °F 33.1 °F 77% 29.52 in 10.0 mi North - - 0.00 in   Overcast
3:01 AM 39.0 °F 32.0 °F 76% 29.53 in 10.0 mi North - - 0.00 in Rain Light Rain
3:50 AM 39.2 °F 30.2 °F 70% 29.26 in 8.0 mi North - - 0.00 in Rain Light Rain
4:01 AM 39.0 °F 30.9 °F 73% 29.54 in 8.0 mi North - - 0.00 in Rain Light Rain
5:01 AM 37.9 °F 30.0 °F 73% 29.54 in 10.0 mi North - - 0.01 in Rain Light Rain
6:01 AM 37.9 °F 30.0 °F 73% 29.56 in 10.0 mi North - - 0.00 in Rain Light Rain
7:01 AM 37.9 °F 28.9 °F 70% 29.56 in 10.0 mi North - - 0.00 in Rain Light Rain
7:58 AM 37.4 °F 30.2 °F 75% 29.30 in 9.0 mi North - - 0.00 in Rain Light Rain
8:01 AM 37.4 °F 30.2 °F 75% 29.30 in 10.0 mi North - - 0.00 in Rain Light Rain
8:47 AM 37.4 °F 30.2 °F 75% 29.31 in 8.0 mi North - - 0.00 in Rain Light Rain
8:58 AM 37.4 °F 30.2 °F 75% 29.31 in 10.0 mi North - - 0.00 in Rain Light Rain
9:01 AM 37.0 °F 30.0 °F 76% 29.59 in 10.0 mi North - - 0.00 in Rain Light Rain
10:01 AM 37.0 °F 28.0 °F 70% 29.60 in 10.0 mi North - - 0.01 in Rain Light Rain
12:01 PM 37.0 °F 28.0 °F 70% 29.65 in 8.0 mi North - - 0.00 in Rain Light Rain
2:01 PM 37.0 °F 26.1 °F 65% 29.66 in 10.0 mi North - - 0.00 in Rain Light Rain
3:01 PM 37.0 °F 26.1 °F 65% 29.66 in 10.0 mi North - - 0.01 in Rain Light Rain
4:01 PM 37.0 °F 26.1 °F 65% 29.66 in 10.0 mi North - - 0.01 in Rain Light Rain
5:01 PM 37.0 °F 27.0 °F 67% 29.67 in 10.0 mi North - - 0.00 in Rain Light Rain
6:01 PM 37.0 °F 27.0 °F 67% 29.66 in 10.0 mi North - - 0.00 in Rain Light Rain
7:01 PM 36.0 °F 27.0 °F 70% 29.67 in 7.0 mi North - - 0.01 in Snow Light Snow
8:01 PM 36.0 °F 27.0 °F 70% 29.68 in 8.0 mi North - - 0.00 in Snow Light Snow
8:30 PM 35.6 °F 26.6 °F 70% 29.40 in 10.0 mi North - - 0.00 in Rain Light Rain
8:44 PM 35.6 °F 24.8 °F 65% 29.39 in 10.0 mi North - - 0.00 in Rain Light Rain
9:01 PM 37.0 °F 27.0 °F 67% 29.67 in 10.0 mi North - - 0.00 in Rain Light Rain
9:51 PM 35.6 °F 28.4 °F 75% 29.40 in 9.0 mi North - - 0.00 in Rain Light Rain
10:01 PM 35.6 °F 26.6 °F 70% 29.40 in 6.0 mi North - - 0.01 in Snow Light Snow
10:19 PM 35.6 °F 28.4 °F 75% 29.41 in 1.8 mi North - - 0.01 in Snow Light Snow
10:39 PM 35.6 °F 28.4 °F 75% 29.40 in 7.0 mi North - - 0.01 in Snow Light Snow
10:58 PM 35.6 °F 26.6 °F 70% 29.39 in 10.0 mi North - - 0.02 in Rain Light Rain
11:01 PM 35.6 °F 26.6 °F 70% 29.40 in 10.0 mi North - - 0.02 in Rain Light Rain
11:07 PM 37.0 °F 26.1 °F 65% 29.68 in 10.0 mi North - - 0.02 in Rain Light Rain
11:17 PM 35.6 °F 26.6 °F 70% 29.40 in 10.0 mi North - - 0.00 in Snow Light Snow
11:32 PM 35.6 °F 28.4 °F 75% 29.41 in 2.5 mi North - - 0.00 in Snow Light Snow
11:40 PM 35.6 °F 28.4 °F 75% 29.40 in 4.0 mi North - - 0.00 in Snow Light Snow
11:56 PM 35.6 °F 26.6 °F 70% 29.40 in 6.0 mi North - - 0.01 in Snow Light Snow